| time (UTC) | temp F | wind direction | speed MPH | gust MPH | rain 1hr in | rain 24hr in | rain mn in | humidity % | barometer mb |
| 20260902155218 | 66 | 158 | 1.0 | 2.0 | 0.00 | 0.07 | 0.00 | 83 | 1001.1 |
| 20260902154220 | 66 | 225 | 1.0 | 3.0 | 0.00 | 0.07 | 0.00 | 84 | 1001.3 |
| 20260902153218 | 66 | 203 | 1.0 | 4.0 | 0.00 | 0.07 | 0.00 | 85 | 1001.4 |
| 20260902152217 | 66 | 203 | 1.0 | 3.0 | 0.00 | 0.07 | 0.00 | 83 | 1001.5 |
| 20260902151903 | 66 | 248 | 3.0 | 4.0 | 0.00 | 0.07 | 0.00 | 84 | 1001.7 |
| 20260902151018 | 66 | 248 | 1.0 | 3.0 | 0.00 | 0.07 | 0.00 | 85 | 1001.6 |
| 20260902150018 | 65 | 0.0 | 1.0 | 0.00 | 0.07 | 0.00 | 84 | 1001.8 | |
| 20260902145018 | 65 | 225 | 2.0 | 4.0 | 0.00 | 0.07 | 0.00 | 82 | 1001.7 |
| 20260902144018 | 65 | 225 | 1.0 | 4.0 | 0.00 | 0.07 | 0.00 | 83 | 1001.5 |
| 20260902143019 | 65 | 225 | 3.0 | 6.0 | 0.00 | 0.07 | 0.00 | 85 | 1001.6 |
| 20260902142019 | 64 | 248 | 3.0 | 6.0 | 0.00 | 0.07 | 0.00 | 85 | 1001.4 |
| 20260902141019 | 64 | 248 | 2.0 | 4.0 | 0.00 | 0.07 | 0.00 | 87 | 1001.2 |
| 20260902140020 | 63 | 158 | 2.0 | 5.0 | 0.00 | 0.07 | 0.00 | 88 | 1001.2 |
| 20260902135017 | 63 | 248 | 1.0 | 4.0 | 0.00 | 0.07 | 0.00 | 92 | 1001.2 |
| 20260902134020 | 62 | 0.0 | 0.0 | 0.00 | 0.07 | 0.00 | 93 | 1001.0 | |
| 20260902133020 | 62 | 0.0 | 0.0 | 0.00 | 0.07 | 0.00 | 92 | 1001.0 | |
| 20260902132020 | 62 | 0.0 | 1.0 | 0.00 | 0.07 | 0.00 | 94 | 1000.7 | |
| 20260902131019 | 61 | 0.0 | 2.0 | 0.00 | 0.07 | 0.00 | 95 | 1000.6 | |
| 20260902130019 | 61 | 0.0 | 1.0 | 0.00 | 0.07 | 0.00 | 96 | 1000.6 | |
| 20260902125018 | 61 | 0.0 | 0.0 | 0.00 | 0.08 | 0.00 | 96 | 1000.8 | |
| 20260902124019 | 61 | 0.0 | 0.0 | 0.00 | 0.09 | 0.00 | 97 | 1000.7 | |
| 20260902123024 | 60 | 0.0 | 0.0 | 0.00 | 0.11 | 0.00 | 97 | 1000.8 | |
| 20260902122020 | 60 | 0.0 | 0.0 | 0.00 | 0.13 | 0.00 | 96 | 1000.9 | |
| 20260902121020 | 60 | 0.0 | 0.0 | 0.00 | 0.14 | 0.00 | 97 | 1000.9 | |
| 20260902120019 | 60 | 0.0 | 0.0 | 0.00 | 0.16 | 0.00 | 96 | 1000.8 | |
| 20260902115022 | 60 | 0.0 | 0.0 | 0.00 | 0.18 | 0.00 | 97 | 1000.9 | |
| 20260902114019 | 60 | 0.0 | 0.0 | 0.00 | 0.22 | 0.00 | 97 | 1000.9 | |
| 20260902113019 | 60 | 0.0 | 0.0 | 0.00 | 0.25 | 0.00 | 97 | 1000.9 | |
| 20260902112019 | 59 | 0.0 | 0.0 | 0.00 | 0.26 | 0.00 | 97 | 1000.9 | |
| 20260902111020 | 59 | 0.0 | 0.0 | 0.00 | 0.26 | 0.00 | 96 | 1001.1 | |
| 20260902110019 | 59 | 0.0 | 0.0 | 0.00 | 0.27 | 0.00 | 96 | 1001.0 | |
| 20260902105020 | 59 | 0.0 | 0.0 | 0.00 | 0.28 | 0.00 | 96 | 1000.9 | |
| 20260902104019 | 59 | 0.0 | 0.0 | 0.00 | 0.30 | 0.00 | 96 | 1000.7 | |
| 20260902103020 | 59 | 0.0 | 0.0 | 0.00 | 0.30 | 0.00 | 96 | 1000.8 | |
| 20260902102019 | 59 | 0.0 | 0.0 | 0.00 | 0.30 | 0.00 | 96 | 1000.7 | |
| 20260902101019 | 59 | 0.0 | 0.0 | 0.00 | 0.30 | 0.00 | 96 | 1000.4 | |
| 20260902100019 | 59 | 0.0 | 0.0 | 0.00 | 0.30 | 0.00 | 96 | 1000.4 | |
| 20260902095117 | 59 | 0.0 | 0.0 | 0.00 | 0.30 | 0.00 | 96 | 1000.3 | |
| 20260902094721 | 59 | 0.0 | 0.0 | 0.00 | 0.30 | 0.00 | 96 | 1000.4 | |
| 20260902093719 | 59 | 0.0 | 0.0 | 0.00 | 0.30 | 0.00 | 96 | 1000.3 | |
| 20260902092719 | 59 | 0.0 | 0.0 | 0.00 | 0.30 | 0.00 | 96 | 1000.3 | |
| 20260902091719 | 59 | 0.0 | 0.0 | 0.00 | 0.30 | 0.00 | 96 | 1000.3 | |
| 20260902090719 | 59 | 0.0 | 0.0 | 0.00 | 0.30 | 0.00 | 96 | 1000.1 | |
| 20260902085719 | 59 | 0.0 | 0.0 | 0.00 | 0.30 | 0.00 | 96 | 999.9 | |
| 20260902084721 | 59 | 0.0 | 0.0 | 0.00 | 0.30 | 0.00 | 96 | 999.9 | |
| 20260902083719 | 59 | 0.0 | 0.0 | 0.00 | 0.30 | 0.00 | 96 | 1000.0 | |
| 20260902082719 | 59 | 0.0 | 0.0 | 0.00 | 0.30 | 0.00 | 96 | 1000.0 | |
| 20260902081719 | 59 | 0.0 | 0.0 | 0.00 | 0.30 | 0.00 | 96 | 1000.1 | |
| 20260902080719 | 60 | 0.0 | 0.0 | 0.00 | 0.30 | 0.00 | 96 | 1000.1 | |
| 20260902075719 | 60 | 0.0 | 0.0 | 0.00 | 0.30 | 0.00 | 96 | 1000.1 | |
| 20260902074719 | 60 | 0.0 | 0.0 | 0.00 | 0.30 | 0.00 | 96 | 1000.1 | |
| 20260902073720 | 60 | 0.0 | 0.0 | 0.00 | 0.30 | 0.00 | 96 | 1000.0 | |
| 20260902072719 | 60 | 0.0 | 0.0 | 0.00 | 0.30 | 0.00 | 96 | 999.8 | |
| 20260902071719 | 61 | 0.0 | 0.0 | 0.00 | 0.30 | 0.00 | 96 | 999.9 | |
| 20260902070719 | 61 | 0.0 | 0.0 | 0.00 | 0.30 | 0.00 | 96 | 1000.2 | |
| 20260902065719 | 61 | 0.0 | 0.0 | 0.00 | 0.30 | 0.00 | 96 | 1000.5 | |
| 20260902064719 | 61 | 0.0 | 0.0 | 0.00 | 0.30 | 0.00 | 96 | 1000.4 | |
| 20260902063719 | 61 | 0.0 | 0.0 | 0.00 | 0.30 | 0.00 | 96 | 1000.2 | |
| 20260902062719 | 61 | 0.0 | 0.0 | 0.00 | 0.30 | 0.00 | 96 | 1000.0 | |
| 20260902061719 | 61 | 0.0 | 0.0 | 0.00 | 0.30 | 0.00 | 96 | 1000.0 | |
| 20260902060719 | 61 | 0.0 | 0.0 | 0.00 | 0.30 | 0.00 | 96 | 1000.0 | |
| 20260902055719 | 61 | 0.0 | 0.0 | 0.00 | 0.30 | 0.00 | 96 | 999.9 | |
| 20260902054719 | 61 | 0.0 | 0.0 | 0.00 | 0.30 | 0.00 | 96 | 999.9 | |
| 20260902053721 | 61 | 0.0 | 0.0 | 0.00 | 0.30 | 0.00 | 96 | 999.8 | |
| 20260902052719 | 61 | 0.0 | 0.0 | 0.00 | 0.30 | 0.00 | 96 | 999.6 | |
| 20260902051719 | 61 | 0.0 | 0.0 | 0.00 | 0.30 | 0.00 | 96 | 999.4 | |
| 20260902050719 | 61 | 0.0 | 0.0 | 0.00 | 0.30 | 0.00 | 96 | 999.4 | |
| 20260902045719 | 61 | 0.0 | 0.0 | 0.00 | 0.30 | 0.00 | 96 | 999.3 | |
| 20260902044719 | 61 | 0.0 | 0.0 | 0.00 | 0.30 | 0.00 | 96 | 999.2 | |
| 20260902043719 | 61 | 0.0 | 0.0 | 0.00 | 0.30 | 0.00 | 96 | 999.2 | |
| 20260902042719 | 61 | 0.0 | 0.0 | 0.00 | 0.30 | 0.00 | 96 | 999.0 | |
| 20260902041719 | 61 | 0.0 | 0.0 | 0.00 | 0.30 | 0.00 | 96 | 998.8 | |
| 20260902040718 | 61 | 0.0 | 0.0 | 0.00 | 0.30 | 0.00 | 96 | 998.7 | |
| 20260902035719 | 61 | 0.0 | 0.0 | 0.00 | 0.30 | 0.30 | 96 | 998.6 | |
| 20260902034719 | 62 | 0.0 | 0.0 | 0.00 | 0.30 | 0.30 | 96 | 998.6 | |
| 20260902033723 | 62 | 0.0 | 2.0 | 0.00 | 0.30 | 0.30 | 96 | 998.7 | |
| 20260902032719 | 62 | 0.0 | 0.0 | 0.00 | 0.30 | 0.30 | 96 | 998.8 | |
| 20260902031719 | 62 | 0.0 | 0.0 | 0.00 | 0.30 | 0.30 | 96 | 999.0 | |
| 20260902030719 | 62 | 0.0 | 0.0 | 0.00 | 0.30 | 0.30 | 96 | 998.9 | |
| 20260902025719 | 62 | 225 | 2.0 | 3.0 | 0.00 | 0.30 | 0.30 | 96 | 998.9 |
| 20260902024719 | 62 | 225 | 1.0 | 3.0 | 0.00 | 0.30 | 0.30 | 96 | 998.8 |
| 20260902023719 | 62 | 225 | 1.0 | 3.0 | 0.00 | 0.30 | 0.30 | 96 | 998.5 |
| 20260902022719 | 62 | 225 | 2.0 | 3.0 | 0.00 | 0.30 | 0.30 | 96 | 998.2 |
| 20260902021719 | 62 | 0.0 | 0.0 | 0.00 | 0.30 | 0.30 | 96 | 998.3 | |
| 20260902020719 | 62 | 0.0 | 2.0 | 0.00 | 0.30 | 0.30 | 96 | 998.5 | |
| 20260902015719 | 62 | 0.0 | 0.0 | 0.00 | 0.30 | 0.30 | 95 | 998.4 | |
| 20260902014719 | 62 | 0.0 | 0.0 | 0.00 | 0.30 | 0.30 | 95 | 998.3 | |
| 20260902013719 | 62 | 203 | 1.0 | 6.0 | 0.00 | 0.30 | 0.30 | 95 | 998.4 |
| 20260902012719 | 62 | 0.0 | 0.0 | 0.00 | 0.30 | 0.30 | 95 | 998.4 | |
| 20260902011719 | 62 | 0.0 | 0.0 | 0.00 | 0.30 | 0.30 | 95 | 998.4 | |
| 20260902010718 | 62 | 0.0 | 0.0 | 0.00 | 0.30 | 0.30 | 95 | 998.3 | |
| 20260902005719 | 62 | 0.0 | 0.0 | 0.00 | 0.30 | 0.30 | 95 | 998.3 | |
| 20260902004719 | 62 | 0.0 | 0.0 | 0.00 | 0.30 | 0.30 | 95 | 998.2 | |
| 20260902003719 | 62 | 0.0 | 0.0 | 0.00 | 0.30 | 0.30 | 95 | 998.1 | |
| 20260902002719 | 62 | 0.0 | 0.0 | 0.00 | 0.30 | 0.30 | 95 | 998.0 | |
| 20260902001719 | 63 | 0.0 | 0.0 | 0.00 | 0.30 | 0.30 | 95 | 997.7 | |
| 20260902000719 | 63 | 0.0 | 0.0 | 0.00 | 0.30 | 0.30 | 95 | 997.6 | |
| 20260901235719 | 63 | 0.0 | 0.0 | 0.00 | 0.30 | 0.30 | 95 | 997.5 | |
| 20260901234718 | 63 | 0.0 | 0.0 | 0.00 | 0.30 | 0.30 | 95 | 997.5 | |
| 20260901233719 | 63 | 0.0 | 0.0 | 0.00 | 0.30 | 0.30 | 95 | 997.4 | |
| 20260901232718 | 63 | 0.0 | 0.0 | 0.00 | 0.30 | 0.30 | 95 | 997.4 | |
| 20260901231830 | 63 | 0.0 | 0.0 | 0.00 | 0.30 | 0.30 | 95 | 997.6 | |
| 20260901231419 | 63 | 0.0 | 0.0 | 0.00 | 0.30 | 0.30 | 95 | 997.6 | |
| 20260901230419 | 63 | 0.0 | 0.0 | 0.00 | 0.30 | 0.30 | 95 | 997.4 | |
| 20260901225419 | 63 | 0.0 | 0.0 | 0.00 | 0.30 | 0.30 | 95 | 997.4 | |
| 20260901224418 | 63 | 0.0 | 0.0 | 0.00 | 0.30 | 0.30 | 95 | 997.4 | |
| 20260901223418 | 63 | 0.0 | 0.0 | 0.00 | 0.30 | 0.30 | 94 | 997.6 | |
| 20260901222418 | 63 | 0.0 | 0.0 | 0.00 | 0.30 | 0.30 | 95 | 997.7 | |
| 20260901221418 | 64 | 0.0 | 0.0 | 0.00 | 0.30 | 0.30 | 94 | 997.6 | |
| 20260901220418 | 64 | 0.0 | 0.0 | 0.01 | 0.30 | 0.30 | 94 | 997.5 | |
| 20260901215419 | 64 | 0.0 | 0.0 | 0.01 | 0.30 | 0.30 | 94 | 997.4 | |
| 20260901214525 | 64 | 0.0 | 0.0 | 0.01 | 0.30 | 0.30 | 94 | 997.3 | |
| 20260901214118 | 64 | 0.0 | 0.0 | 0.01 | 0.30 | 0.30 | 94 | 997.3 | |
| 20260901213118 | 64 | 0.0 | 0.0 | 0.01 | 0.30 | 0.30 | 95 | 997.3 | |
| 20260901212118 | 64 | 0.0 | 1.0 | 0.01 | 0.30 | 0.30 | 95 | 997.1 | |
| 20260901211118 | 64 | 0.0 | 0.0 | 0.00 | 0.29 | 0.29 | 95 | 997.1 | |
| 20260901210118 | 64 | 0.0 | 0.0 | 0.00 | 0.29 | 0.29 | 95 | 997.1 | |
| 20260901205118 | 64 | 0.0 | 0.0 | 0.00 | 0.29 | 0.29 | 95 | 997.0 | |
| 20260901204118 | 64 | 0.0 | 0.0 | 0.00 | 0.29 | 0.29 | 95 | 996.9 | |
| 20260901203118 | 64 | 0.0 | 0.0 | 0.00 | 0.29 | 0.29 | 95 | 996.8 | |
| 20260901202118 | 64 | 0.0 | 0.0 | 0.00 | 0.29 | 0.29 | 95 | 996.9 | |
| 20260901201118 | 64 | 0.0 | 0.0 | 0.00 | 0.29 | 0.29 | 95 | 996.8 | |
| 20260901200118 | 64 | 0.0 | 0.0 | 0.00 | 0.29 | 0.29 | 95 | 996.7 | |
| 20260901195118 | 63 | 0.0 | 1.0 | 0.00 | 0.29 | 0.29 | 95 | 996.8 | |
| 20260901194118 | 63 | 0.0 | 1.0 | 0.00 | 0.29 | 0.29 | 94 | 996.7 | |
| 20260901193119 | 64 | 0.0 | 1.0 | 0.01 | 0.29 | 0.29 | 95 | 996.7 | |
| 20260901192118 | 64 | 0.0 | 0.0 | 0.01 | 0.29 | 0.29 | 95 | 996.8 | |
| 20260901191118 | 64 | 0.0 | 2.0 | 0.01 | 0.29 | 0.29 | 95 | 996.8 | |
| 20260901190118 | 64 | 0.0 | 0.0 | 0.01 | 0.29 | 0.29 | 95 | 996.9 | |
| 20260901185118 | 63 | 0.0 | 0.0 | 0.01 | 0.29 | 0.29 | 95 | 997.0 | |
| 20260901184118 | 63 | 0.0 | 0.0 | 0.02 | 0.29 | 0.29 | 96 | 997.0 | |
| 20260901183118 | 63 | 0.0 | 0.0 | 0.01 | 0.28 | 0.28 | 95 | 997.0 | |
| 20260901182118 | 62 | 0.0 | 2.0 | 0.03 | 0.28 | 0.28 | 95 | 996.9 | |
| 20260901181118 | 62 | 0.0 | 0.0 | 0.04 | 0.28 | 0.28 | 95 | 996.8 | |
| 20260901180118 | 62 | 0.0 | 0.0 | 0.04 | 0.28 | 0.28 | 95 | 996.8 |